GW1268 Weather Reports


time (UTC)temp
F
wind
direction
speed
knots
gust
knots
rain 1hr
in
rain 24hr
in
rain mn
in
humidity
%
barometer
mb
20260505121941 59 40 0.9 1.7 0.00 0.00 0.00 70 1027.5
20260505120938 60 42 0.9 3.5 0.00 0.00 0.00 70 1027.5
20260505115937 60 45 0.9 2.6 0.00 0.00 0.00 69 1027.5
20260505114935 60 38 0.9 2.6 0.00 0.00 0.00 69 1027.5
20260505112533 60 40 0.9 1.7 0.00 0.00 0.00 70 1027.5
20260505111531 60 40 0.9 1.7 0.00 0.00 0.00 70 1027.5
20260505110529 60 42 0.9 1.7 0.00 0.00 0.00 70 1027.4
20260505100517 61 22 0.9 3.5 0.00 0.00 0.00 70 1027.3
20260505094515 61 29 0.9 1.7 0.00 0.00 0.00 70 1027.4
20260505093512 60 25 0.9 2.6 0.00 0.00 0.00 70 1027.4
20260505092509 60 24 1.7 2.6 0.00 0.00 0.00 70 1027.4
20260505091507 60 25 1.7 1.7 0.00 0.00 0.00 70 1027.4
20260505090506 60 24 1.7 2.6 0.00 0.00 0.00 70 1027.2
20260505085504 60 31 0.9 2.6 0.00 0.00 0.00 70 1027.1
20260505083459 60 30 0.9 2.6 0.00 0.00 0.00 70 1027.0
20260505082458 60 33 0.9 1.7 0.00 0.00 0.00 70 1027.0
20260505081454 60 30 0.9 2.6 0.00 0.00 0.00 70 1026.9
20260505080454 60 33 0.9 2.6 0.00 0.00 0.00 70 1026.8
20260505075451 60 37 0.9 2.6 0.00 0.00 0.00 70 1026.6
20260505073447 60 36 0.9 2.6 0.00 0.00 0.00 70 1026.5
20260505072409 60 40 0.9 1.7 0.00 0.00 0.00 70 1026.5
20260505071405 60 42 0.9 1.7 0.00 0.00 0.00 69 1026.3
20260505070404 61 40 0.9 2.6 0.00 0.00 0.00 69 1026.3
20260505065404 61 40 0.9 1.7 0.00 0.00 0.00 69 1026.3
20260505064401 61 42 0.9 1.7 0.00 0.00 0.00 69 1026.2
20260505062357 61 42 0.9 1.7 0.00 0.00 0.00 68 1026.0
20260505061354 62 39 0.9 1.7 0.00 0.00 0.00 68 1026.1
20260505060353 62 40 0.9 2.6 0.00 0.00 0.00 68 1026.0
20260505055351 62 37 0.9 1.7 0.00 0.00 0.00 68 1025.9
20260505054349 62 38 0.9 2.6 0.00 0.00 0.00 67 1025.8
20260505053344 62 37 0.9 1.7 0.00 0.00 0.00 68 1025.6
20260505052343 61 45 0.9 1.7 0.00 0.00 0.00 68 1025.5
20260505051342 61 38 0.9 1.7 0.00 0.00 0.00 68 1025.6
20260505050340 61 39 0.9 1.7 0.00 0.00 0.00 68 1025.6
20260505041329 62 61 0.9 1.7 0.00 0.00 0.00 68 1025.1
20260505040328 62 63 0.9 1.7 0.00 0.00 0.00 69 1025.0
20260505035326 63 60 0.9 1.7 0.00 0.00 0.00 69 1025.1
20260505034323 63 53 0.9 1.7 0.00 0.00 0.00 70 1025.0
20260505033323 63 56 0.9 1.7 0.00 0.00 0.00 70 1025.0
20260505032320 62 23 0.9 3.5 0.00 0.00 0.00 70 1025.0
20260505031319 62 45 0.9 1.7 0.00 0.00 0.00 71 1025.3
20260505030316 62 40 0.9 2.6 0.00 0.00 0.00 71 1025.2
20260505025313 62 45 0.9 1.7 0.00 0.00 0.00 71 1025.2
20260505023311 61 36 0.9 1.7 0.00 0.00 0.00 72 1025.3
20260505022307 62 25 0.9 1.7 0.00 0.00 0.00 72 1025.4
20260505021305 62 27 0.9 1.7 0.00 0.00 0.00 72 1025.3
20260505020303 61 30 0.9 2.6 0.00 0.00 0.00 73 1025.5
20260505015303 61 34 0.9 3.5 0.00 0.00 0.00 73 1025.6
20260505014300 60 37 0.9 2.6 0.00 0.00 0.00 74 1025.4
20260505013258 60 45 0.9 2.6 0.00 0.00 0.00 74 1025.7
20260505010252 59 45 0.9 3.5 0.00 0.00 0.00 75 1025.5
20260505005250 59 41 0.9 2.6 0.00 0.00 0.00 75 1025.4
20260505004249 59 62 0.9 3.5 0.00 0.00 0.00 76 1025.4
20260505003247 59 37 0.9 1.7 0.00 0.00 0.00 76 1025.1
20260505002243 59 45 0.9 4.3 0.00 0.00 0.00 76 1024.9
20260505001242 59 48 0.9 2.6 0.00 0.00 0.00 77 1024.9
20260505000240 59 45 0.9 3.5 0.00 0.00 0.00 77 1024.8
20260504235237 58 49 0.9 3.5 0.00 0.00 0.00 78 1024.7
20260504234237 58 32 0.9 1.7 0.00 0.00 0.00 78 1024.7
20260504233233 58 45 0.9 3.5 0.00 0.00 0.00 78 1024.7
20260504232233 58 52 0.9 4.3 0.00 0.00 0.00 78 1024.5
20260504231230 58 26 0.9 2.6 0.00 0.00 0.00 78 1024.2
20260504230228 58 30 0.9 5.2 0.00 0.00 0.00 78 1024.4
20260504225225 58 35 0.9 2.6 0.00 0.00 0.00 79 1024.2
20260504223222 57 38 0.9 3.5 0.00 0.00 0.00 79 1023.9
20260504222219 57 30 0.9 2.6 0.00 0.00 0.00 79 1023.6
20260504221217 57 34 0.9 2.6 0.00 0.00 0.00 79 1023.3
20260504220217 57 27 0.9 3.5 0.00 0.00 0.00 79 1023.2
20260504215214 57 32 0.9 2.6 0.00 0.00 0.00 79 1023.0
20260504214213 57 41 0.9 2.6 0.00 0.00 0.00 79 1022.7
20260504213211 57 41 0.9 4.3 0.00 0.00 0.00 79 1022.6
20260504212207 57 38 0.9 3.5 0.00 0.00 0.00 79 1022.4
20260504211206 57 38 0.9 3.5 0.00 0.00 0.00 79 1022.2
20260504210204 57 28 0.9 3.5 0.00 0.00 0.00 79 1022.3
20260504205202 57 23 0.9 3.5 0.00 0.00 0.00 79 1022.3
20260504203159 57 38 0.9 6.1 0.00 0.00 0.00 79 1021.7
20260504200153 57 27 0.9 3.5 0.00 0.00 0.00 79 1021.3
20260504195150 57 39 0.9 3.5 0.00 0.00 0.00 78 1021.1
20260504194148 57 36 0.9 3.5 0.00 0.00 0.00 78 1021.1
20260504193146 57 33 0.9 2.6 0.00 0.00 0.00 78 1020.8
20260504192144 58 29 0.9 3.5 0.00 0.00 0.00 78 1020.8
20260504191141 58 35 0.9 2.6 0.00 0.00 0.00 78 1020.8
20260504184137 58 36 0.9 3.5 0.00 0.00 0.00 77 1020.2
20260504182131 58 41 0.9 3.5 0.00 0.00 0.00 76 1020.1
20260504181130 58 27 0.9 3.5 0.00 0.00 0.00 76 1019.9
20260504180129 58 36 0.9 5.2 0.00 0.00 0.00 76 1019.8
20260504174123 58 26 1.7 4.3 0.00 0.00 0.00 75 1019.7
20260504173122 58 41 0.9 3.5 0.00 0.00 0.00 75 1019.7
20260504172120 58 19 0.9 4.3 0.00 0.00 0.00 75 1019.6
20260504171117 58 33 0.9 3.5 0.00 0.00 0.00 75 1019.6
20260504160105 59 15 1.7 7.0 0.00 0.00 0.00 74 1019.1
20260504151053 59 14 1.7 6.1 0.00 0.00 0.00 73 1018.6
20260504141044 60 0 1.7 7.0 0.00 0.00 0.00 72 1018.0